Flag for New Zealand Weather past 2 weeks in Auckland, New Zealand

Now
64 °F

Mild.


Feels Like: 64 °F
Forecast: 62 / 74 °F
Wind: 1 mph from Northeast

Location: Auckland Airport

Current Time: Mar 2, 2015 at 4:48:32 AM

Latest Report: Mar 2, 2015 at 4:00 AM


Visibility: N/A

Pressure: 30.09 "Hg

Humidity: 94%

Dew point: 63 °F

Location of AucklandLocation

Historic Weather in Auckland — Graph

°F

Auckland temperature yesterday

Maximum temperature yesterday: 81 °F (at 3:00 PM)
Minimum temperature yesterday: 61 °F (at 3:30 AM)
Average temperature yesterday: 69 °F

Past Weeks' High & Low Weather Summary

 TemperatureHumidityPressure
High81 °F (Mar 1, 3:00 PM)100% (Feb 17, 3:30 AM)30.33 "Hg (Feb 17, 3:30 AM)
Low57 °F (Feb 17, 3:30 AM)32% (Mar 1, 3:00 PM)29.86 "Hg (Feb 26, 4:30 PM)
Average67 °F78%30.13 "Hg
* Reported Feb 15 3:00 AM — Mar 2 3:30 AM, Auckland, Weather by CustomWeather, © 2015

Note: Actual official high and low records may vary slightly from our data, if they occured in-between our weather recording intervals... More about our weather records

Advertising

Auckland weather history for previous 24 hours

 ConditionsComfort  
Time TempWeatherWind HumidityBarometerVisibility
3:30 AM
Mon, Mar 2
64 °FMild.2 mph94%30.09 "HgN/A
3:00 AM64 °FMild.2 mph88%30.09 "HgN/A
2:30 AM64 °FMild.2 mph94%30.09 "HgN/A
2:00 AM64 °FMild.2 mph94%30.09 "HgN/A
1:30 AM64 °FMild.2 mph94%30.12 "HgN/A
1:00 AM66 °FMild.2 mph88%30.12 "HgN/A
12:30 AM66 °FMild.3 mph88%30.12 "HgN/A
12:00 AM66 °FMild.3 mph88%30.12 "HgN/A
11:30 PM
Sun, Mar 1
68 °FMild.2 mph83%30.12 "HgN/A
11:00 PM68 °FMild.5 mph83%30.12 "HgN/A
10:30 PM68 °FMild.5 mph83%30.12 "HgN/A
10:00 PM68 °FMild.5 mph78%30.12 "HgN/A
9:30 PM68 °FMild.5 mph78%30.09 "HgN/A
9:00 PM70 °FMild.5 mph69%30.09 "HgN/A
8:30 PM70 °FMild.7 mph69%30.09 "HgN/A
8:00 PM72 °FMild.8 mph69%30.09 "HgN/A
7:30 PM73 °FMild.9 mph65%30.09 "HgN/A
7:00 PM75 °FMild.10 mph57%30.07 "HgN/A
6:30 PM77 °FWarm.9 mph57%30.07 "HgN/A
6:00 PM77 °FWarm.10 mph57%30.07 "HgN/A
5:30 PM79 °FWarm.12 mph54%30.07 "HgN/A
5:00 PM79 °FWarm.10 mph54%30.07 "HgN/A
4:30 PM79 °FWarm.10 mph51%30.07 "HgN/A
4:00 PM81 °FWarm.10 mph45%30.09 "HgN/A
3:30 PM81 °FPleasantly warm.8 mph37%30.09 "HgN/A
3:00 PM81 °FPleasantly warm.7 mph32%30.09 "HgN/A
2:30 PM79 °FWarm.7 mph42%30.12 "HgN/A
2:00 PM77 °FWarm.7 mph47%30.12 "HgN/A
1:30 PM75 °FMild.7 mph54%30.12 "HgN/A
1:00 PM75 °FMild.6 mph50%30.12 "HgN/A
12:30 PM75 °FMild.6 mph61%30.15 "HgN/A
12:00 PM75 °FMild.5 mph65%30.15 "HgN/A
11:30 AM73 °FMild.3 mph65%30.15 "HgN/A
11:00 AM72 °FMild.5 mph73%30.15 "HgN/A
10:00 AM70 °FMild.3 mph78%30.15 "HgN/A
9:30 AM68 °FMild.3 mph83%30.15 "HgN/A
9:00 AM66 °FMild.1 mph88%30.15 "HgN/A
8:30 AM64 °FMild.No wind94%30.15 "HgN/A
8:00 AM63 °FMild.No wind94%30.15 "HgN/A
7:30 AM61 °FCool.1 mph100%30.12 "HgN/A
7:00 AM61 °FCool.3 mph94%30.12 "HgN/A
6:30 AM61 °FCool.3 mph94%30.12 "HgN/A
6:00 AM61 °FCool.2 mph94%30.12 "HgN/A
5:30 AM61 °FCool.3 mph94%30.12 "HgN/A
5:00 AM61 °FCool.3 mph94%30.12 "HgN/A
4:30 AM61 °FCool.3 mph94%30.12 "HgN/A
4:00 AM61 °FCool.3 mph94%30.12 "HgN/A
Weather by CustomWeather, © 2015

See weather overviewHow to use our weather pages